ECMWFFLT1_sfc_dewp_060.txt.gz
Dewpoint
56 57 58 59 59 59 60 60 60 61 61 62 63 64 65 65 66 66 67 68 68 69 69 69 69 70 69 69 69 69 69 69 69 69 69 69 71 70 69 70 70 70 71 72 72 73 73 73 73 73 74 75 75 75 76 76 75 75 75 75 74 75 74
55 57 58 59 59 59 60 60 60 61 62 62 63 65 65 66 66 66 67 68 68 68 69 69 70 69 69 69 69 69 69 69 69 70 70 70 71 72 70 70 71 71 71 72 73 73 73 73 73 73 74 74 75 75 75 76 75 75 75 74 74 74 74
55 56 58 59 59 59 60 60 61 61 62 62 63 65 65 66 67 67 67 68 68 68 69 69 70 69 69 69 69 69 69 69 69 69 70 69 69 71 72 71 71 72 72 72 73 73 73 73 73 73 73 74 74 75 75 75 75 75 74 74 74 74 74
55 56 57 59 59 60 60 60 61 61 62 63 63 65 65 66 67 68 68 68 68 68 68 69 70 69 69 69 69 69 69 70 70 70 70 70 70 70 72 72 71 71 72 72 73 73 74 73 73 73 75 74 74 74 75 75 75 75 74 74 74 74 74
55 56 57 58 58 59 60 61 61 61 62 63 64 65 66 67 68 68 68 69 69 68 68 69 69 70 70 69 69 70 70 70 70 70 70 71 71 71 71 72 72 71 71 72 73 74 74 74 73 73 74 74 74 74 74 75 75 75 74 74 74 74 74
55 55 56 58 58 59 60 61 61 61 61 62 64 65 66 67 68 68 69 69 69 69 69 69 69 70 70 70 70 70 70 70 70 71 71 71 71 71 71 72 72 71 71 72 73 74 74 74 73 73 73 74 74 74 74 74 74 74 74 74 73 74 74
54 55 56 57 58 59 60 61 61 62 61 62 63 65 66 67 67 68 69 69 70 69 69 69 69 70 70 70 70 70 70 70 70 70 71 71 71 71 71 71 72 72 71 72 72 73 74 74 74 73 73 73 74 74 74 74 74 74 74 74 73 73 74
54 55 56 57 58 59 60 61 62 62 62 62 63 64 65 66 67 68 69 69 70 70 70 70 70 70 70 71 70 70 70 70 70 70 71 70 71 71 71 71 72 73 73 72 72 73 73 73 74 74 73 73 73 74 74 74 74 74 74 74 73 73 74
54 55 55 57 58 59 60 61 61 62 62 62 62 64 65 66 67 68 69 69 70 70 70 70 70 70 70 71 71 70 70 70 70 71 70 70 70 71 71 71 71 72 73 73 72 73 73 73 73 73 73 73 73 73 74 74 74 74 74 73 73 73 73
53 54 55 56 57 58 59 60 61 62 62 62 63 63 64 65 66 68 69 69 70 70 70 70 70 70 70 70 71 71 70 70 70 70 70 70 70 70 70 71 71 71 72 73 73 73 73 73 73 73 73 73 73 73 73 74 74 74 74 74 73 73 73
52 54 55 55 56 57 59 60 61 62 62 62 63 63 64 65 66 67 68 69 70 70 71 71 71 71 70 70 70 70 71 70 70 70 70 70 70 70 70 70 70 70 71 72 73 73 73 73 73 73 73 73 73 73 73 73 74 74 74 74 74 74 74
52 53 54 55 55 57 58 59 61 62 62 62 63 63 64 65 65 66 68 69 70 71 71 71 71 71 71 71 70 70 70 71 70 70 70 70 70 70 70 70 70 70 70 70 71 73 73 73 73 73 73 73 72 73 73 73 74 74 74 74 74 74 74
52 53 54 54 55 56 58 59 60 61 62 62 62 63 64 65 65 66 67 68 69 70 71 71 71 71 71 71 71 71 70 70 70 70 70 70 70 70 70 70 70 70 70 70 70 71 72 73 73 72 73 73 73 72 73 73 74 74 74 74 74 74 74
58 52 53 54 55 56 58 59 60 61 61 61 61 63 65 65 65 66 67 68 69 70 71 71 72 72 71 71 71 71 71 71 71 71 70 70 70 70 70 70 70 71 70 70 70 69 70 72 73 72 72 72 73 73 73 72 73 74 74 74 74 74 74
51 51 52 53 54 56 57 58 60 60 61 61 61 62 65 66 66 67 67 68 69 69 70 71 72 72 72 71 71 71 71 71 71 71 71 71 71 70 70 70 70 71 71 71 70 70 70 70 71 72 72 72 72 72 73 73 73 73 73 74 74 74 74
51 51 51 51 53 54 56 58 59 60 61 62 62 63 65 66 66 67 67 67 68 69 70 71 72 72 72 72 72 72 72 72 72 72 71 71 71 71 70 70 70 70 71 71 70 70 70 70 70 71 72 72 71 71 72 73 73 71 67 68 73 74 74
50 50 50 51 52 53 56 57 59 60 61 62 63 63 66 67 67 67 67 68 68 69 70 71 72 72 72 72 72 72 72 72 72 72 71 71 71 71 71 70 70 70 70 70 71 71 70 70 70 70 71 71 72 71 71 72 72 67 65 65 66 72 74
47 49 50 50 51 53 56 58 61 61 62 62 63 64 66 68 68 68 67 68 68 68 70 71 72 72 72 72 72 72 72 72 72 72 71 71 71 71 71 70 70 70 70 70 70 71 71 70 70 70 70 71 71 71 72 71 67 64 64 64 64 67 73
49 49 51 52 53 55 56 58 61 63 63 63 64 65 66 68 68 68 68 69 69 69 70 71 72 72 72 72 73 72 72 72 71 71 71 71 71 71 71 70 70 70 70 69 70 70 71 70 70 70 70 70 71 71 71 72 67 64 63 64 64 64 68
57 54 55 53 53 55 56 59 61 64 66 67 67 66 67 69 69 69 69 69 70 69 70 71 72 72 73 73 73 73 72 72 71 71 71 71 71 71 71 71 70 70 70 70 70 70 70 70 70 70 70 70 70 71 71 71 67 63 62 62 62 63 65
64 62 62 64 65 65 66 67 67 67 68 68 67 68 69 70 70 70 70 70 70 70 70 70 71 72 73 73 73 73 73 72 72 71 71 71 71 71 71 71 71 70 70 70 69 69 69 70 70 70 70 69 69 70 70 71 66 62 61 60 61 62 63
66 68 68 69 68 68 69 69 69 69 69 70 70 69 69 69 70 70 70 71 71 71 70 70 70 71 72 73 73 73 73 73 72 72 71 71 71 70 70 71 71 71 70 70 69 69 69 70 70 70 70 70 70 69 69 70 64 61 60 60 60 61 67
66 67 69 70 70 70 70 70 70 70 70 68 68 69 69 69 70 70 70 70 71 71 71 71 70 70 72 73 73 73 73 73 73 72 72 71 71 70 70 70 71 71 71 70 70 69 69 69 70 71 71 71 71 70 70 70 66 61 59 59 59 60 69
69 70 70 69 69 70 71 71 71 72 71 72 73 73 73 72 70 70 70 70 71 71 71 71 70 71 71 72 73 73 73 73 73 73 72 72 71 71 70 70 70 71 71 70 70 69 69 69 69 70 71 71 71 71 71 70 67 59 58 58 58 62 69
68 69 69 69 69 70 71 71 72 72 72 72 72 72 74 73 72 69 70 71 71 70 70 70 70 71 71 72 72 73 73 73 73 73 73 72 72 71 71 71 71 71 71 71 70 70 69 70 69 69 70 70 71 71 71 71 68 57 58 57 58 62 70
66 66 67 69 70 70 71 71 70 70 71 72 73 74 74 74 74 74 71 70 70 71 70 70 70 71 71 72 73 73 73 73 74 74 73 73 73 72 72 72 71 71 71 71 71 70 70 69 69 69 70 70 70 70 71 72 72 65 56 57 57 58 70
66 66 67 68 70 72 70 70 70 70 70 71 72 73 73 73 72 72 73 73 70 70 70 71 71 71 71 72 73 73 73 73 74 73 73 73 73 73 73 72 72 72 72 71 71 71 71 70 70 70 70 70 71 71 71 72 72 68 55 56 56 57 62
66 66 67 68 71 70 69 69 70 70 70 71 72 72 73 73 72 71 72 71 71 72 73 71 71 72 72 72 73 74 73 73 74 74 74 74 74 74 73 73 73 72 72 72 72 72 72 71 71 70 70 71 71 72 72 73 70 73 57 56 55 56 56
66 66 66 66 67 69 69 69 70 70 70 70 71 71 72 73 74 72 71 70 71 73 74 74 71 72 72 72 73 74 74 74 74 74 75 74 74 74 74 74 74 74 73 73 73 73 72 72 72 72 71 72 73 73 73 73 72 67 66 55 54 54 54
66 66 66 67 68 69 69 69 69 69 69 69 70 70 71 72 72 74 73 70 72 74 76 74 72 72 72 72 73 74 74 74 75 75 75 75 75 75 74 75 75 74 74 74 73 73 73 73 73 72 72 72 72 73 73 74 74 68 63 62 54 53 53
65 66 67 67 68 69 68 68 69 69 69 69 69 68 69 70 71 72 71 71 73 74 74 74 73 72 72 72 73 74 74 75 75 76 76 76 76 75 75 75 75 75 75 74 74 74 74 74 74 73 73 72 72 72 73 74 69 63 57 59 56 53 52
64 65 66 67 68 68 68 68 69 68 68 67 68 68 69 69 70 69 70 72 73 74 74 75 73 73 72 72 73 74 74 75 75 76 76 76 76 76 76 75 75 75 75 75 74 74 74 74 74 73 73 73 72 73 73 68 66 64 62 60 57 55 53
64 65 65 66 67 69 67 68 68 68 67 67 67 68 69 70 70 70 71 71 72 75 75 75 73 74 73 73 73 74 75 75 75 76 76 76 76 76 76 76 76 75 75 75 75 74 74 74 74 74 73 73 73 71 64 62 62 63 65 65 62 60 58
63 64 65 66 67 68 66 67 67 66 67 67 67 68 69 69 69 70 70 71 72 74 74 75 74 73 73 73 74 74 75 75 78 76 76 75 75 75 76 76 76 75 75 75 75 75 74 74 74 74 74 74 72 63 60 58 58 59 59 60 63 64 64
62 63 64 65 66 67 66 67 68 67 66 66 67 67 67 68 69 70 69 70 72 73 73 73 74 73 73 73 74 74 75 75 76 74 70 64 59 55 54 53 59 72 71 65 68 75 75 75 75 74 75 74 67 62 59 58 57 58 54 57 54 59 58
62 63 63 65 66 66 66 68 68 66 66 65 66 67 66 67 67 69 69 71 71 72 72 71 71 71 72 72 73 73 73 72 70 68 66 63 61 58 57 54 47 49 61 62 59 58 65 66 72 70 66 62 60 61 60 56 57 50 45 45 45 46 48
61 62 63 64 64 65 65 66 68 67 67 65 66 66 67 67 68 68 69 71 71 71 71 71 70 70 70 71 71 69 69 68 67 66 65 64 62 62 61 60 56 47 46 51 52 49 47 48 50 53 57 61 58 56 53 52 48 45 45 45 45 45 45
62 62 63 63 64 65 65 65 66 66 66 65 66 66 66 66 67 68 70 71 71 71 70 70 71 70 70 70 69 68 67 66 65 65 64 63 62 62 61 60 59 57 50 46 48 48 47 47 48 48 50 51 54 56 55 49 45 44 44 45 45 45 43

ECMWFFLT1_sfc_dewp_063.txt.gz
Dewpoint
55 56 57 58 58 58 58 59 59 60 60 61 62 62 64 65 66 67 67 67 68 68 69 70 70 70 70 70 70 70 70 70 70 69 69 69 69 68 68 69 69 69 71 71 72 72 73 73 74 74 74 74 74 74 75 75 75 75 75 75 75 74 74
54 56 57 58 58 59 59 59 59 59 60 61 61 62 63 64 66 66 67 67 68 68 68 69 70 70 70 70 70 70 70 70 70 70 69 69 70 69 69 69 69 69 70 71 72 72 73 73 73 73 73 74 74 74 75 75 75 75 75 74 74 74 74
54 55 56 58 58 59 59 59 59 59 60 60 61 62 63 64 65 66 67 67 67 68 68 69 70 70 70 70 70 70 70 70 69 69 69 68 69 70 69 69 69 69 69 71 71 72 73 73 73 73 73 73 74 74 74 75 75 75 75 74 74 74 74
53 54 56 58 59 59 60 60 60 59 60 60 61 62 63 64 65 66 66 67 67 68 68 68 69 70 70 70 70 70 70 70 69 69 69 69 69 70 70 69 69 70 70 70 71 72 73 73 73 73 75 73 73 74 74 74 75 75 75 74 74 74 74
53 54 55 57 58 59 60 60 60 60 59 60 61 62 63 64 64 65 66 67 67 67 68 68 69 69 70 70 70 70 70 69 69 69 69 69 69 69 70 70 69 70 70 70 71 72 72 73 73 73 73 73 73 74 74 74 74 75 74 74 74 74 73
52 54 55 56 57 59 60 60 60 60 59 60 61 62 63 63 64 64 65 67 67 67 68 68 68 69 69 69 70 70 70 70 70 69 69 69 69 69 69 71 70 70 70 71 71 72 72 73 72 73 73 73 73 73 73 74 74 74 74 74 74 74 73
52 54 55 56 57 58 59 60 60 60 60 60 61 62 63 63 64 64 65 66 66 67 67 68 68 69 69 69 69 69 69 69 69 69 69 69 69 69 69 70 71 71 70 71 72 72 72 72 72 72 72 73 73 73 73 73 74 74 74 74 73 73 73
52 54 55 56 57 58 59 60 60 60 60 61 61 62 63 63 64 64 64 65 66 66 67 67 68 69 69 69 69 69 69 69 69 69 69 69 69 69 69 69 70 71 71 70 71 72 72 72 73 73 72 72 73 73 73 73 73 74 74 74 73 73 73
52 54 55 56 57 58 58 59 60 60 60 61 61 62 63 64 64 64 65 65 66 66 66 67 68 68 69 69 69 69 69 69 69 69 69 69 69 69 69 70 70 71 71 71 71 72 73 73 73 73 73 72 72 73 73 73 73 73 73 73 73 73 73
52 54 55 55 57 58 58 59 60 61 61 61 62 62 63 64 64 65 65 65 66 66 67 67 67 68 69 69 69 69 69 69 69 69 69 69 69 69 69 70 70 71 71 71 71 71 72 73 73 73 73 72 72 72 73 73 73 73 73 73 73 73 73
52 54 55 55 56 58 59 59 60 61 61 61 62 62 63 64 64 65 66 66 66 67 67 67 68 68 68 69 69 69 69 69 69 69 69 69 69 69 70 70 70 70 71 72 72 71 71 72 73 73 73 73 72 72 72 73 73 73 73 73 73 73 73
53 54 55 55 56 58 58 59 61 61 61 62 62 62 64 64 64 65 66 66 67 67 68 68 68 68 68 69 69 69 69 69 69 69 69 69 69 69 69 70 70 70 71 71 72 72 72 71 72 72 72 73 73 73 73 73 73 73 73 73 73 73 73
53 54 55 55 57 58 59 60 61 61 62 61 61 62 63 64 65 65 66 67 67 68 68 68 69 69 69 69 69 69 69 69 69 69 69 69 69 69 69 69 70 70 70 71 71 72 72 72 71 72 72 72 72 73 73 73 73 73 73 73 73 73 73
60 54 55 55 57 58 59 60 60 61 62 62 61 62 63 64 65 66 66 67 68 68 69 69 69 69 69 69 69 69 70 70 69 69 69 70 70 70 69 69 70 70 70 70 70 71 71 72 72 72 72 72 72 72 72 72 73 73 73 73 73 73 73
52 53 54 55 57 58 59 59 60 61 62 62 62 62 62 63 64 65 67 67 68 68 69 70 70 70 69 69 69 70 70 70 70 70 70 70 70 70 70 70 70 70 70 70 70 70 70 71 72 72 72 72 72 72 72 72 72 73 73 73 73 73 73
51 52 54 54 56 57 58 59 60 61 62 62 62 62 62 63 64 65 66 67 68 69 69 70 70 70 70 70 70 70 70 70 71 70 70 70 70 70 70 70 70 70 70 70 70 70 70 70 71 72 72 72 72 72 72 72 72 70 66 68 73 73 73
51 52 53 54 56 57 58 59 60 61 62 62 62 62 62 63 63 64 65 66 67 69 70 70 70 70 70 70 71 71 71 71 71 71 70 70 70 70 70 70 70 70 70 70 70 70 70 70 69 70 71 72 72 72 72 72 72 67 64 64 66 71 73
51 52 53 54 55 56 57 58 59 61 61 61 61 62 62 63 64 64 64 65 67 68 69 70 71 71 71 71 71 71 71 71 71 71 71 71 70 70 70 70 70 70 70 70 70 70 70 70 69 69 69 70 71 71 72 72 67 65 64 63 63 66 72
50 51 52 54 55 56 56 57 59 60 61 61 61 61 62 63 64 64 65 66 67 68 69 70 71 71 71 71 71 71 71 71 71 71 71 71 71 71 71 70 70 70 70 70 70 70 70 70 70 69 69 69 69 70 71 71 66 64 63 63 62 62 66
50 51 52 53 54 55 55 57 58 60 61 62 62 62 62 64 64 65 65 66 67 68 69 70 70 71 71 71 72 72 72 72 71 71 71 71 71 71 71 70 70 70 70 70 70 70 70 70 70 70 69 69 69 69 70 70 66 63 61 61 61 62 63
54 52 52 52 53 54 55 57 58 60 61 61 62 62 63 64 65 66 67 67 68 68 69 70 70 71 71 71 72 72 72 72 72 71 71 71 71 71 71 71 70 70 70 70 70 70 70 70 70 70 70 70 69 69 69 69 64 62 60 59 59 61 62
65 62 61 59 59 59 58 59 59 59 60 62 63 63 63 64 66 67 67 68 68 68 69 70 70 71 71 71 72 72 72 72 72 72 72 72 71 71 71 71 71 70 70 70 70 70 70 70 70 70 70 70 70 69 69 69 63 61 60 59 59 60 66
69 69 69 68 68 68 68 67 66 67 69 67 66 66 65 67 68 68 68 68 68 69 69 70 70 71 71 72 72 72 72 72 72 72 72 72 71 71 71 71 71 71 71 70 70 69 69 69 69 70 69 70 70 70 69 69 65 60 58 58 58 59 67
69 69 70 70 70 71 71 71 72 72 70 70 70 69 69 69 69 69 69 69 69 69 69 69 70 71 71 72 72 72 72 72 72 72 72 72 71 71 71 71 71 71 71 70 70 69 69 69 69 69 69 69 69 70 69 69 66 60 57 57 57 61 68
69 69 69 70 70 71 71 72 72 73 73 72 72 72 71 70 70 70 70 70 70 70 69 69 69 70 71 72 72 73 73 73 73 72 72 72 71 71 71 71 71 71 71 71 70 70 70 69 69 69 69 69 69 68 69 69 67 60 58 56 56 61 68
67 68 69 69 69 70 70 71 71 71 71 72 72 72 72 70 70 70 70 70 70 70 69 70 70 70 71 71 72 73 73 73 73 73 72 72 72 72 71 71 71 71 71 71 70 70 70 70 69 69 69 69 69 69 70 70 70 68 58 56 55 57 68
66 68 69 69 70 71 69 70 70 70 70 71 72 73 73 72 72 72 71 71 70 70 70 71 71 71 71 71 72 72 73 73 73 73 73 72 72 72 72 71 71 71 70 70 70 70 70 70 69 69 69 69 69 69 70 70 70 70 58 56 55 55 60
66 67 68 70 72 70 69 68 68 68 68 69 70 72 73 73 72 72 71 70 69 70 71 71 71 72 72 72 72 72 73 73 73 73 73 73 73 72 72 72 71 71 70 70 70 70 70 70 70 69 69 69 69 69 70 71 68 71 61 56 55 55 55
66 66 67 68 68 70 68 67 67 67 67 68 69 69 71 72 72 71 70 70 70 71 72 73 72 71 71 71 72 72 72 73 73 73 74 73 73 73 72 72 72 71 71 71 70 70 70 70 70 70 69 69 70 70 70 71 70 65 68 58 55 54 54
65 66 67 68 68 68 68 67 66 66 67 68 68 69 69 70 70 71 70 68 70 71 72 72 73 71 71 71 71 72 72 73 73 73 73 74 73 73 73 72 72 72 72 71 71 70 70 70 70 70 70 69 70 71 71 71 71 67 63 64 56 55 54
64 65 66 67 68 69 68 66 66 66 66 67 68 69 69 69 69 70 69 69 71 72 73 73 72 71 71 71 71 72 73 73 73 73 73 74 74 73 73 73 73 72 72 72 71 71 71 71 71 71 70 70 70 71 72 72 73 69 64 63 59 55 54
63 64 65 66 67 67 67 66 66 66 66 66 67 68 69 68 68 68 67 69 70 71 73 74 72 71 71 71 71 72 73 73 73 73 74 74 74 74 73 73 73 73 73 72 72 72 71 71 71 71 71 71 71 71 72 70 67 65 63 62 60 57 54
62 63 64 64 66 67 66 66 66 66 66 66 66 67 68 67 68 68 68 69 70 72 73 73 73 73 71 71 71 71 73 73 74 74 74 74 74 74 74 73 73 73 73 73 73 72 72 72 72 72 72 72 72 72 69 67 66 65 64 62 62 61 58
61 61 62 64 65 67 65 65 65 65 65 65 64 65 66 66 66 67 68 69 70 71 72 73 73 72 71 70 71 72 73 73 76 75 75 74 73 74 74 74 74 74 73 73 73 73 73 73 73 72 72 72 73 69 65 63 64 65 65 63 63 61 60
60 60 61 63 64 66 65 65 65 64 64 64 64 65 65 65 66 67 67 69 69 70 71 72 72 71 71 71 71 72 73 73 75 74 70 62 59 54 53 54 55 66 72 70 70 74 74 74 74 73 74 74 72 67 64 62 63 64 59 64 60 62 63
60 60 61 62 63 63 64 66 65 64 64 63 64 65 65 65 66 67 68 68 69 70 71 70 70 69 69 70 71 71 72 73 72 69 66 63 61 58 56 52 47 48 56 62 57 55 56 64 74 74 74 73 66 64 67 65 63 48 46 46 47 48 50
60 60 61 62 62 62 63 64 67 66 64 63 64 64 64 65 65 66 68 68 68 69 69 69 69 68 69 69 70 70 71 70 69 67 66 65 63 62 61 60 56 46 45 49 50 47 47 55 60 63 65 67 62 55 51 50 47 45 44 44 44 44 44
60 60 62 62 61 62 62 63 64 65 65 64 64 64 64 64 65 65 67 68 69 68 68 68 68 68 68 68 68 69 69 69 68 66 65 65 64 64 63 61 60 58 49 45 47 46 44 44 46 50 52 53 55 54 54 49 46 45 45 44 44 43 42

ECMWFFLT1_sfc_dewp_069.txt.gz
Dewpoint
59 59 60 61 61 61 62 63 64 64 66 67 67 67 68 68 69 70 70 71 71 72 72 73 73 73 73 72 73 73 73 73 73 73 73 73 72 73 73 73 73 74 73 73 74 75 76 77 77 77 77 78 77 78 78 78 78 77 77 78 77 76 76
57 58 59 60 61 61 62 64 64 64 65 66 67 68 67 68 70 70 71 72 72 72 72 72 73 73 73 73 73 73 73 73 73 73 73 73 74 74 73 74 73 74 75 74 74 76 76 76 76 77 77 77 77 78 77 78 78 78 77 77 76 76 76
55 57 58 59 59 60 63 63 64 64 65 65 66 67 67 69 70 71 71 71 72 72 72 72 73 73 73 73 73 73 73 73 73 72 72 71 72 71 73 74 74 73 73 74 75 75 76 76 76 77 77 77 76 77 77 77 78 77 77 78 77 75 76
54 56 58 59 60 61 62 63 63 63 63 64 65 66 67 70 70 71 71 71 71 72 72 72 72 72 73 73 73 73 73 73 73 72 71 71 72 72 73 73 74 73 74 73 73 74 74 75 76 76 77 77 77 77 77 77 76 77 77 78 76 76 75
55 56 57 59 59 61 62 62 62 64 63 63 65 67 67 69 68 70 70 70 70 71 71 71 71 72 73 73 72 73 73 73 73 72 72 72 73 73 73 71 72 72 72 73 74 75 75 76 74 75 76 77 76 77 77 77 76 77 77 77 76 75 74
53 55 57 58 59 59 60 61 61 62 62 62 64 65 66 66 67 67 68 70 70 70 71 72 72 72 73 73 72 72 73 73 74 73 73 73 73 72 72 72 71 72 71 73 73 73 74 74 74 74 74 74 74 74 75 76 76 76 77 77 76 75 74
53 55 56 57 58 59 59 60 60 61 62 62 63 64 65 65 66 66 67 68 69 70 70 70 70 71 73 73 73 73 73 73 73 73 72 72 73 72 72 72 73 71 72 73 73 73 73 74 74 75 74 74 74 74 75 76 76 77 77 77 76 75 75
54 55 57 57 57 57 58 60 60 60 61 62 62 63 63 64 65 65 66 67 68 69 69 69 70 72 72 73 73 73 73 73 73 73 72 72 72 72 72 72 72 73 73 72 73 73 72 73 73 74 74 74 74 75 75 76 77 75 76 76 76 75 74
53 56 56 55 56 56 57 60 60 60 62 62 62 63 63 64 64 65 66 67 67 68 68 68 69 70 72 73 73 73 73 73 73 73 73 71 71 70 70 71 72 73 72 71 71 73 72 72 72 74 75 74 75 76 76 76 76 76 76 76 76 76 75
53 57 58 56 57 55 58 60 61 63 63 63 64 65 64 64 65 65 66 66 66 67 68 68 69 70 72 72 72 72 73 73 73 71 71 71 71 70 70 70 71 72 72 71 70 71 73 73 73 74 75 75 75 75 76 76 75 75 76 76 76 76 76
51 59 60 57 57 58 60 60 62 64 64 65 65 63 65 65 65 65 66 66 66 66 67 68 69 69 70 71 70 71 72 72 72 71 71 71 70 70 70 70 70 71 71 71 70 71 72 73 73 74 75 73 74 75 75 75 75 75 74 75 76 76 75
53 57 61 59 60 60 59 62 63 65 66 66 63 62 65 66 65 64 66 66 66 66 67 68 68 69 70 70 70 71 72 72 71 71 71 71 70 70 70 70 70 70 71 71 71 71 71 72 72 73 74 74 74 75 75 75 75 76 75 74 74 75 75
50 55 59 58 61 60 64 65 66 66 67 64 62 62 64 64 65 65 67 67 66 67 67 69 69 70 69 69 69 71 73 72 71 71 71 71 71 70 70 70 69 69 70 71 71 70 70 70 72 73 73 74 74 74 75 75 75 76 76 75 75 75 76
56 52 55 59 60 62 63 66 66 67 66 64 62 63 63 64 64 65 67 66 66 66 67 68 69 70 70 70 70 72 73 72 72 71 72 72 73 72 71 70 70 71 71 71 71 70 70 70 71 72 73 73 74 74 75 75 75 76 76 76 75 75 75
41 45 53 55 61 64 64 63 66 67 65 65 63 64 63 64 64 66 68 67 68 66 67 69 69 70 70 70 71 72 73 73 73 73 73 72 73 72 72 71 72 72 72 72 71 70 70 71 71 72 73 73 73 74 74 74 74 74 75 75 75 75 74
33 33 40 50 57 59 64 64 65 67 67 67 64 65 63 64 66 66 66 66 66 68 68 69 70 70 70 70 72 73 73 73 74 73 73 73 73 74 73 72 72 72 72 72 72 72 72 72 72 71 71 72 73 74 74 74 74 72 68 69 75 75 74
43 34 33 46 54 59 61 63 65 67 67 67 66 66 64 66 65 65 64 66 66 68 68 69 71 71 71 71 72 73 73 74 73 74 73 74 74 74 73 73 73 73 73 73 72 72 73 73 72 71 71 71 71 72 73 73 73 68 65 65 66 73 75
57 49 41 37 46 55 61 61 64 66 66 64 64 65 65 67 65 65 64 66 66 66 67 68 69 70 71 71 73 73 73 73 73 73 73 73 73 74 74 73 73 73 73 73 73 73 73 72 72 73 71 71 71 71 72 72 68 65 64 64 64 67 74
64 58 49 46 46 55 56 58 62 65 64 64 64 64 64 66 64 66 66 68 67 67 67 68 68 70 71 71 72 73 73 73 73 73 73 73 73 73 73 73 73 73 73 72 73 73 73 73 72 72 72 72 72 71 71 71 67 64 63 63 63 63 68
65 61 53 48 46 47 56 60 61 64 64 66 65 63 65 66 64 66 67 68 69 68 70 70 70 71 71 72 72 73 73 73 73 73 73 73 73 73 73 73 73 73 73 72 73 73 73 72 73 73 73 73 73 73 72 71 67 62 62 62 62 62 64
67 64 56 53 54 52 60 63 64 65 66 64 63 65 65 65 65 67 68 69 68 69 71 71 70 71 71 72 72 73 73 73 73 73 73 73 73 73 73 73 73 73 73 71 72 73 73 72 72 73 73 72 72 72 71 70 65 61 60 60 60 61 63
66 67 63 55 57 60 64 60 63 62 64 64 64 64 64 65 65 65 67 68 69 69 70 71 71 71 71 72 72 72 72 72 73 73 73 73 73 73 73 73 73 73 73 72 71 72 72 72 72 72 72 72 72 71 71 71 63 61 60 59 59 60 68
66 67 67 62 58 60 65 64 65 63 67 65 64 64 64 65 65 66 67 68 68 71 70 71 71 71 71 71 71 71 72 72 72 73 73 73 73 73 73 73 73 73 73 72 71 71 71 72 71 72 72 72 72 72 72 71 66 60 58 58 58 61 71
67 68 67 61 61 63 66 65 65 67 64 65 65 65 67 66 66 69 70 69 70 71 71 70 70 71 72 71 71 71 72 72 72 73 73 73 73 72 72 72 73 73 73 72 71 70 71 71 72 72 72 71 71 71 72 71 68 58 57 57 57 63 72
67 68 68 65 61 61 62 66 66 65 67 66 66 68 70 69 69 68 70 70 70 69 69 69 70 71 71 71 72 72 72 72 72 73 73 73 73 73 72 73 73 73 73 72 72 71 72 72 72 72 72 71 71 70 70 71 68 59 57 56 55 63 72
67 68 68 68 64 64 68 70 69 66 66 65 68 69 70 69 67 68 69 70 68 68 69 70 71 71 72 72 72 72 73 73 74 74 72 73 73 74 73 73 73 73 73 72 72 72 71 71 72 72 71 71 71 70 71 71 72 71 57 55 55 57 71
67 67 68 68 69 69 67 67 67 65 65 68 71 68 68 68 67 69 71 70 70 69 69 71 72 73 73 73 72 72 73 73 73 73 72 73 73 73 73 73 73 73 73 72 72 72 72 72 72 71 72 71 72 71 71 71 71 73 57 55 54 55 60
66 67 67 69 71 71 70 65 68 68 67 70 68 68 68 69 70 70 71 70 70 71 70 73 74 74 74 75 73 73 73 73 74 74 72 74 74 75 74 74 74 73 73 72 73 73 73 74 73 72 72 72 72 73 73 72 69 72 61 56 54 54 55
64 65 67 68 69 69 70 71 71 69 67 65 66 66 67 67 70 70 71 70 72 71 72 73 73 74 74 74 73 74 74 74 74 74 73 74 75 75 75 75 74 75 75 74 74 74 74 74 73 73 72 73 73 73 74 75 73 64 71 56 54 53 53
63 64 65 66 67 68 70 71 71 70 70 66 68 69 69 69 71 71 71 71 73 73 73 74 74 74 74 74 74 74 74 74 74 75 74 75 76 75 75 75 75 75 75 75 74 73 73 73 73 73 71 72 72 73 74 75 74 68 63 67 54 54 53
62 63 64 65 66 68 69 69 71 71 71 72 73 72 72 72 72 73 72 75 76 75 74 74 74 74 74 73 74 74 74 75 75 75 75 76 76 75 75 75 75 75 75 74 74 73 73 73 73 73 73 72 72 73 73 74 74 74 70 62 59 54 53
62 63 64 65 67 68 68 69 69 70 71 72 73 74 75 74 74 74 76 76 76 76 76 75 75 74 74 73 74 74 74 74 74 75 76 75 75 75 75 75 75 74 75 74 73 73 73 72 72 72 73 72 72 73 73 74 75 74 74 67 64 59 55
62 63 64 65 66 68 68 69 68 69 70 70 72 72 73 74 75 76 76 76 76 76 77 76 76 75 76 75 75 75 74 74 73 73 74 75 74 74 75 75 75 75 74 74 73 73 73 73 73 72 72 72 73 73 74 75 74 74 74 74 73 70 67
61 62 64 65 66 67 68 68 69 69 69 70 71 72 73 73 74 75 75 75 76 76 77 77 76 75 75 75 75 75 75 75 75 75 73 74 74 73 74 74 74 74 74 74 73 72 72 73 72 72 72 72 73 74 73 73 73 74 73 73 73 73 72
61 62 63 64 66 68 68 69 69 69 69 69 70 71 72 73 73 75 76 76 77 78 77 76 77 77 76 75 75 75 75 75 75 75 74 75 76 67 63 70 74 74 74 75 75 74 73 73 73 74 73 73 73 73 73 74 74 74 67 74 66 71 72
60 62 63 64 65 67 68 68 69 69 69 69 70 71 71 72 73 74 74 76 77 78 77 76 76 78 78 77 76 76 75 75 74 74 74 74 71 66 61 50 45 50 69 76 66 65 63 65 75 74 73 73 74 75 73 73 73 65 61 61 59 59 60
60 61 62 63 64 66 67 68 69 69 69 69 70 70 71 71 72 73 73 74 76 77 78 78 77 77 77 76 77 76 76 76 75 76 76 74 72 71 69 67 62 45 42 48 51 49 52 54 54 57 63 74 76 66 49 50 48 51 53 53 53 53 52
60 61 61 62 63 64 65 66 67 67 68 69 69 69 70 70 70 71 72 74 74 75 76 78 77 77 77 77 76 76 76 76 75 74 74 73 72 72 71 70 69 66 49 43 45 44 41 40 42 46 52 56 66 67 65 51 44 44 45 44 44 44 44

ECMWFFLT1_sfc_dewp_072.txt.gz
Dewpoint
55 58 60 62 63 63 64 65 67 67 68 69 69 69 69 70 71 72 72 73 74 75 75 75 74 73 72 72 72 72 72 73 73 73 73 73 73 73 73 72 73 73 70 70 71 71 73 75 74 74 75 75 75 76 76 77 77 75 76 76 76 75 75
51 54 57 59 61 62 64 66 67 67 67 68 69 70 69 70 71 71 72 73 74 75 75 74 75 73 72 73 72 73 73 72 73 74 73 74 74 74 74 74 74 74 74 71 71 74 74 74 75 75 75 75 75 76 75 76 77 76 75 76 75 75 75
49 52 56 59 60 61 64 65 66 66 67 67 68 69 69 71 71 72 72 72 74 75 75 74 74 73 73 73 73 73 72 72 73 72 72 72 74 72 74 75 74 73 73 73 73 73 74 74 76 76 75 74 73 74 75 75 76 75 76 76 75 74 75
46 50 53 58 61 63 63 64 66 66 66 66 67 68 69 71 71 72 72 72 73 74 74 74 74 73 73 73 73 73 73 73 73 72 71 72 73 74 74 74 75 73 73 72 71 71 71 74 74 76 76 75 75 74 74 75 74 75 75 76 74 75 75
46 47 50 56 59 61 62 63 64 66 65 65 67 69 69 70 70 71 71 72 72 73 73 73 72 73 74 74 73 73 73 73 73 72 72 73 74 75 74 72 73 72 72 72 73 74 74 75 74 75 76 77 75 75 75 75 74 75 76 76 75 74 73
45 47 49 53 57 60 61 62 63 64 64 65 66 67 68 68 69 69 70 71 71 72 73 74 73 74 74 73 73 72 73 73 73 74 73 73 73 73 73 73 72 73 70 72 72 73 74 74 74 74 73 74 73 71 72 73 73 73 76 76 75 73 72
42 47 49 52 56 59 60 61 61 63 64 64 65 67 67 67 68 68 69 70 70 71 71 72 72 72 74 74 74 74 73 72 73 73 73 73 73 74 74 74 73 72 72 73 72 73 73 74 74 74 74 73 73 71 72 74 73 74 75 76 76 75 75
42 46 52 54 54 56 58 61 62 62 64 64 64 65 65 66 66 67 68 68 69 69 70 70 71 73 74 74 73 73 73 73 72 73 73 73 73 73 73 73 74 74 74 72 73 73 72 74 74 74 73 73 74 74 74 75 76 73 74 75 75 75 74
40 48 52 52 54 54 56 60 62 62 64 64 64 65 65 66 66 66 68 68 69 68 69 69 70 71 74 73 74 74 74 73 73 73 73 73 72 71 72 73 74 73 73 71 71 74 73 73 73 75 75 74 74 75 75 76 76 75 74 74 76 76 74
40 48 54 52 53 52 57 60 63 64 64 65 65 66 66 66 67 67 67 67 67 68 68 69 69 70 73 73 73 73 74 74 74 73 73 72 71 71 71 71 72 73 73 72 71 71 74 73 73 74 76 75 75 75 76 76 75 75 74 75 75 76 76
39 51 57 54 54 55 58 59 62 65 65 67 66 64 66 66 66 66 67 67 66 67 68 69 70 70 72 72 72 72 74 74 73 73 73 72 71 71 70 70 70 72 72 72 71 71 72 74 74 74 75 75 75 75 76 76 76 75 73 74 75 75 74
52 57 61 61 59 58 58 62 64 66 67 67 65 64 67 68 66 66 66 67 67 67 68 69 69 70 71 72 71 73 74 74 73 72 72 72 71 70 70 69 70 71 72 72 71 71 70 73 73 73 75 76 75 76 76 76 76 76 75 72 73 75 74
44 51 56 57 60 60 63 65 66 66 67 65 64 64 65 66 66 65 67 68 67 68 68 70 70 71 71 72 71 73 75 74 73 72 72 73 71 70 70 70 69 69 71 72 71 70 69 70 73 74 74 75 75 75 76 76 76 77 77 75 74 74 75
56 43 52 56 59 60 62 64 66 67 67 66 64 64 65 66 65 66 67 67 67 67 67 68 70 71 71 72 72 74 74 74 74 72 73 73 74 73 71 70 70 71 71 72 72 70 70 69 71 73 73 74 75 75 75 76 76 77 77 77 75 74 74
38 35 47 52 60 62 63 63 67 68 68 66 65 64 65 65 66 67 68 68 68 66 68 70 70 71 71 72 73 74 75 75 75 74 74 74 75 74 73 72 72 72 72 73 72 70 70 70 70 72 73 74 74 75 74 74 75 76 76 76 76 75 73
42 38 31 42 57 60 65 65 67 69 69 69 66 66 64 65 67 66 66 67 67 68 68 69 70 71 71 72 73 74 75 75 76 75 75 75 75 75 74 73 73 73 72 73 73 73 73 72 72 71 72 73 74 74 74 74 74 74 70 72 76 76 73
48 52 53 55 48 57 62 65 66 68 69 69 67 66 65 66 67 66 65 67 67 68 68 69 71 72 72 73 74 74 76 76 76 76 75 75 75 76 75 75 74 74 74 74 74 74 75 73 72 71 71 72 73 73 73 74 73 69 66 66 69 74 76
60 62 61 61 63 58 55 61 64 67 68 66 65 65 65 67 66 66 65 67 67 66 67 69 70 71 73 73 74 75 76 76 76 76 76 76 76 76 76 75 75 75 75 74 74 75 74 73 73 73 72 71 72 72 73 73 70 65 64 65 65 69 74
62 63 64 66 66 67 62 52 58 66 66 65 64 64 64 66 65 67 67 69 69 68 67 69 70 72 73 73 74 75 76 76 76 76 76 76 76 76 76 76 75 75 75 74 75 75 75 75 74 74 73 72 73 72 72 72 68 64 63 64 64 65 69
64 64 65 65 67 67 67 63 56 59 66 68 66 62 64 67 65 67 67 69 70 69 70 71 72 73 73 74 75 75 76 76 76 76 76 76 76 76 76 76 76 76 75 75 75 75 75 74 75 75 75 74 74 74 72 72 68 63 62 62 63 63 66
65 65 66 67 67 67 68 64 59 57 63 64 63 64 65 65 66 67 68 69 69 70 71 71 72 73 73 74 75 75 76 76 76 76 76 76 76 76 76 76 76 76 75 74 74 75 75 74 75 75 75 74 73 73 72 70 65 61 61 61 61 62 64
65 65 65 66 68 69 71 66 59 53 58 65 63 62 64 65 65 66 67 69 69 70 71 72 73 73 74 74 75 75 75 75 76 76 76 76 76 76 76 76 76 76 75 74 73 74 74 74 74 74 74 74 73 72 72 71 64 60 59 59 60 61 70
65 65 66 67 67 68 70 68 62 57 60 65 63 61 63 64 64 65 66 68 69 70 71 72 73 73 74 73 74 74 74 74 74 75 75 75 75 75 75 76 76 76 76 74 73 72 72 74 73 74 73 73 74 74 73 72 67 59 58 58 59 62 73
65 66 66 66 68 68 67 64 62 61 60 65 64 63 65 66 65 67 69 69 70 70 71 71 71 73 74 73 73 73 74 74 74 75 75 76 75 75 74 74 75 75 75 74 72 70 71 72 73 74 73 72 73 72 73 73 68 58 57 57 57 65 73
65 65 66 67 67 67 62 63 64 61 64 67 64 66 68 68 67 66 70 70 70 70 70 70 71 72 73 73 73 73 73 73 74 74 74 75 75 74 74 74 75 74 75 73 73 72 73 72 73 72 73 71 71 72 72 72 69 57 57 56 56 65 74
66 66 66 66 67 69 68 66 67 64 65 64 66 67 69 67 67 68 70 70 68 68 69 70 71 72 72 72 73 73 73 73 75 75 74 75 75 75 74 74 74 74 74 74 73 72 71 71 72 72 72 72 71 71 71 72 73 69 56 56 55 59 73
66 66 67 66 67 71 67 66 66 65 64 66 68 67 68 67 67 68 70 70 70 69 68 70 72 72 73 73 72 72 73 73 74 74 73 74 74 74 74 73 73 73 74 72 72 72 72 71 71 71 72 72 72 72 71 71 72 76 56 55 54 57 63
65 66 66 67 69 70 69 65 67 66 65 68 68 68 67 68 69 71 71 71 70 70 69 71 72 73 73 74 72 72 72 72 74 74 72 74 75 75 75 74 74 73 73 72 73 74 74 74 73 72 72 73 73 73 73 73 71 74 59 55 54 55 57
65 65 67 68 68 68 68 68 66 65 65 66 67 68 68 68 71 72 72 71 72 71 71 71 72 73 74 74 73 73 73 73 74 74 72 73 75 75 75 75 74 75 75 75 74 74 74 75 75 74 73 74 74 74 75 76 76 65 69 56 54 53 54
64 65 66 67 67 69 67 70 70 65 65 66 68 68 69 70 71 72 72 73 73 72 71 73 73 74 74 74 74 73 73 73 73 74 74 75 75 75 76 75 75 75 75 75 74 73 74 73 73 73 72 72 72 73 74 76 74 69 65 64 53 54 53
63 64 65 67 68 69 68 68 70 69 67 67 68 69 70 70 72 73 73 74 74 73 72 74 74 75 75 74 74 74 74 74 75 75 75 75 75 76 75 76 76 75 76 76 74 73 73 72 73 73 73 73 72 73 74 74 74 74 70 63 56 54 53
62 63 64 66 68 69 69 69 69 71 72 72 71 71 71 72 73 74 74 74 74 74 74 75 76 76 75 75 74 75 74 74 74 75 75 75 75 75 76 76 75 74 75 74 73 73 73 73 73 73 74 73 73 73 73 74 74 75 74 67 61 58 54
61 63 64 65 68 69 70 70 70 70 71 72 72 72 70 71 71 73 74 75 74 74 76 76 76 76 75 75 74 75 75 75 73 73 74 75 74 74 75 75 75 75 75 73 72 73 73 73 73 73 72 73 73 73 73 74 73 74 74 74 72 69 65
61 62 63 65 67 69 68 69 70 71 71 71 72 74 74 74 75 76 76 75 73 73 75 75 76 75 75 75 74 74 75 74 75 74 73 74 74 72 73 74 74 73 74 74 73 72 72 73 72 72 72 72 73 73 73 73 73 74 74 74 74 74 72
62 62 63 64 66 68 68 68 68 70 70 71 73 73 73 74 74 75 75 74 74 74 75 75 75 75 75 74 74 74 75 75 74 73 73 74 75 74 78 78 73 74 74 75 75 74 72 72 72 73 73 72 72 73 72 73 73 73 67 79 68 74 73
61 63 62 63 65 65 67 68 68 68 69 70 72 73 73 74 75 75 75 76 77 77 77 76 75 75 75 75 75 75 75 74 74 73 73 74 74 74 67 50 45 54 71 75 62 56 58 59 74 75 75 71 72 75 74 73 74 60 63 61 60 57 49
60 61 62 62 63 63 64 66 68 68 68 69 70 71 72 73 74 75 76 77 78 77 76 77 75 74 74 74 75 75 75 75 75 75 75 75 75 76 73 72 67 43 42 48 53 49 40 40 41 44 51 68 76 68 50 51 48 49 51 52 50 47 46
60 62 62 61 62 63 63 64 65 67 68 68 69 69 71 71 72 73 74 76 77 78 78 77 76 75 75 75 76 76 76 75 76 76 76 75 76 77 75 74 74 71 49 42 44 43 41 41 41 40 42 49 59 70 68 51 45 45 45 45 45 47 47

ECMWFFLT1_sfc_dewp_075.txt.gz
Dewpoint
50 54 58 58 59 60 63 65 67 66 67 68 68 67 67 67 69 71 72 74 75 75 76 76 75 75 74 73 73 73 73 73 72 72 72 73 73 73 72 71 71 71 69 70 71 69 71 72 71 72 73 74 74 74 76 77 76 75 76 76 76 75 75
52 49 54 60 60 60 65 66 67 66 67 68 69 69 67 68 70 70 72 74 75 75 75 76 76 75 74 74 74 74 74 73 73 73 73 73 74 74 72 73 72 72 72 70 70 72 72 72 71 72 72 74 74 75 74 76 76 76 74 75 75 75 75
48 49 52 53 58 60 65 66 67 66 67 67 68 68 68 70 70 72 73 73 75 76 75 76 76 75 75 75 74 74 73 72 73 72 72 71 73 72 73 73 72 71 71 70 70 70 70 72 73 73 73 73 72 74 75 75 76 75 75 75 75 74 76
50 51 53 56 59 62 64 65 67 66 66 67 68 68 68 71 71 72 72 74 75 75 75 75 75 74 74 75 74 74 73 73 73 72 71 72 73 73 73 73 73 71 72 70 68 68 68 71 73 74 74 73 73 73 74 74 73 75 75 75 75 74 75
45 49 51 53 58 60 62 64 66 67 66 66 68 70 70 70 70 71 72 73 73 74 74 74 74 73 74 74 72 72 72 73 73 72 72 72 74 74 73 72 72 71 71 71 70 70 72 72 71 73 73 74 72 73 73 74 73 74 75 76 75 74 73
37 43 48 51 56 57 58 63 64 65 65 65 67 68 68 68 69 69 71 72 73 74 75 75 74 74 74 73 72 71 73 73 74 74 73 73 73 73 73 72 72 72 68 71 69 69 70 70 71 72 72 72 71 69 71 73 73 73 75 75 75 73 71
37 40 46 52 53 52 55 61 63 65 65 65 66 68 68 68 69 69 70 71 72 74 74 74 73 73 73 73 72 73 73 72 73 73 72 72 73 74 74 73 73 71 69 71 70 70 70 70 72 72 72 70 72 69 71 73 73 73 74 75 75 74 74
38 38 43 49 52 54 55 57 62 64 65 64 65 66 67 67 68 69 69 70 71 72 72 72 72 73 73 73 72 72 72 72 72 73 73 72 73 73 73 73 73 73 72 69 71 71 70 71 70 71 71 70 71 72 70 73 74 71 72 74 74 74 72
36 42 41 43 47 48 51 57 60 62 65 65 65 66 67 67 67 68 69 69 70 71 72 71 71 72 73 72 73 73 73 72 73 73 73 71 72 72 71 72 73 73 72 69 69 71 71 72 71 72 73 72 71 73 72 73 73 72 72 73 74 74 72
38 42 47 46 47 45 52 54 60 64 65 66 66 67 67 68 68 68 68 69 69 70 71 71 70 71 73 72 72 73 74 73 73 71 71 71 71 71 70 71 73 73 72 70 68 70 71 72 72 73 74 72 72 73 73 73 73 73 72 72 73 74 74
33 46 48 45 47 48 50 51 60 66 66 69 67 65 67 67 68 68 68 68 68 69 70 70 71 71 72 72 72 71 73 72 71 71 71 71 70 70 70 70 71 72 72 71 68 68 71 72 73 74 74 72 72 74 74 73 74 74 71 71 73 74 74
48 50 50 50 50 49 48 59 65 68 69 69 66 65 68 69 68 67 68 69 68 68 69 69 69 70 72 71 71 72 73 72 71 70 71 70 69 69 70 69 68 70 71 71 69 68 69 72 71 73 75 75 74 74 75 75 75 75 73 70 71 73 73
36 52 51 47 51 49 59 67 67 67 69 66 64 65 66 67 67 67 69 69 68 69 69 70 70 71 72 72 71 72 74 72 70 70 71 71 69 70 70 68 67 68 70 70 69 68 67 70 72 72 74 75 75 74 75 76 75 76 75 73 72 72 73
52 42 52 57 59 60 60 62 67 68 68 67 65 65 66 67 67 67 69 69 69 68 68 68 69 71 72 72 71 73 73 73 72 70 72 72 73 71 69 68 67 68 69 71 70 68 67 68 70 71 72 74 75 75 76 76 75 76 77 75 73 71 73
33 33 42 44 53 58 60 60 68 68 67 67 66 65 65 66 67 68 69 69 70 68 68 70 70 71 71 73 73 74 75 75 74 72 72 73 73 72 70 70 70 69 70 72 71 68 67 67 68 71 72 73 74 75 74 75 75 75 76 76 74 72 71
35 31 34 39 49 53 60 61 65 69 69 70 67 66 63 66 68 67 67 68 68 69 69 70 70 72 72 73 74 75 76 76 76 74 74 74 74 75 73 71 71 69 69 71 71 72 71 70 69 69 71 72 74 74 73 74 75 75 71 73 75 73 70
48 50 49 51 55 53 58 60 63 68 70 70 69 67 65 66 68 67 66 68 67 69 69 69 72 72 73 74 75 75 76 76 76 75 75 75 75 75 75 74 73 74 74 73 73 74 75 71 68 67 69 71 72 73 73 72 73 70 67 68 70 74 73
50 53 52 53 55 58 61 59 61 64 67 67 67 67 66 68 67 67 66 67 68 67 67 69 70 72 74 74 75 76 77 76 76 76 75 76 76 76 76 75 74 75 74 72 73 75 72 71 70 71 68 69 71 72 72 72 71 65 66 66 67 71 74
53 52 52 56 57 61 61 60 58 63 65 66 66 64 64 65 65 68 68 69 69 69 68 69 70 72 74 74 75 76 77 77 77 76 76 76 77 77 76 76 75 74 74 72 74 74 74 75 71 72 71 69 72 70 71 72 67 64 65 65 65 66 72
59 58 56 56 61 59 62 67 68 68 63 68 68 63 64 66 65 67 68 69 70 70 72 72 72 73 73 75 75 76 77 77 77 77 77 77 77 77 77 76 75 75 74 74 75 75 74 73 73 73 74 72 72 74 71 72 66 63 63 64 64 65 68
62 62 63 63 64 65 68 69 70 70 70 65 63 67 65 64 64 67 68 69 69 70 73 72 72 73 74 74 76 76 77 77 78 77 77 78 77 78 77 77 77 76 75 73 74 75 75 74 74 74 74 72 70 71 70 68 64 62 61 62 62 64 66
61 61 62 64 65 66 68 68 69 69 70 70 62 62 65 64 63 64 67 68 69 70 71 73 74 73 74 75 75 76 76 76 77 77 77 78 78 77 77 77 77 77 76 74 72 74 74 75 74 74 74 74 72 70 71 70 61 61 61 60 61 63 72
61 62 63 65 64 64 68 69 69 69 70 70 67 59 64 64 63 64 67 68 68 71 71 72 73 73 74 74 75 75 76 76 76 77 77 77 77 77 77 77 77 76 76 75 73 72 73 75 73 75 74 74 74 72 72 71 65 60 59 59 60 64 74
61 63 63 65 66 66 67 68 69 70 67 66 66 63 66 65 64 67 70 70 71 70 70 70 71 73 75 74 75 75 76 76 76 77 77 77 77 77 76 76 77 76 77 75 73 70 71 73 74 74 74 73 74 73 72 71 69 57 58 58 58 66 74
61 62 64 65 66 65 65 68 69 69 70 68 63 64 68 69 66 64 68 70 70 70 69 70 72 73 74 74 75 75 76 76 76 77 76 77 77 76 76 77 77 76 76 74 74 72 72 72 72 72 73 72 72 74 72 71 68 56 57 57 57 67 75
62 63 64 66 66 67 68 70 70 70 68 65 65 64 68 67 66 67 68 69 69 69 69 71 72 74 75 74 75 75 76 76 77 77 76 77 77 77 77 76 75 75 75 74 74 72 70 69 71 71 71 71 71 71 72 73 72 65 55 56 56 61 75
62 63 65 65 66 68 68 68 68 68 67 67 68 64 65 66 66 67 70 70 71 70 69 71 73 74 75 75 74 74 75 75 76 76 75 76 76 75 75 75 75 75 75 74 72 72 72 70 69 68 71 70 70 70 70 71 73 68 55 55 56 58 65
61 62 64 67 68 69 68 66 68 69 67 67 65 65 65 67 70 71 72 71 70 71 70 73 74 75 76 75 74 74 74 75 76 76 75 76 77 77 76 76 75 75 74 73 73 74 74 74 73 70 69 70 70 72 71 72 71 74 56 56 55 57 59
60 61 63 66 68 69 69 67 68 67 66 63 63 65 66 65 70 71 72 71 73 72 72 73 74 75 75 76 74 75 75 75 75 75 73 75 76 76 76 76 76 75 76 75 75 75 74 75 74 72 71 71 71 72 75 77 77 69 64 55 54 55 57
61 62 63 64 66 69 69 71 69 67 66 64 65 66 67 69 71 72 72 73 74 73 73 74 74 75 75 75 75 74 74 74 75 75 75 76 77 77 77 76 76 75 75 76 74 73 74 74 74 73 71 71 72 73 75 77 75 67 63 60 54 54 55
61 62 64 65 66 69 70 69 68 68 67 66 69 70 71 69 71 72 73 74 75 75 73 74 75 75 75 74 74 75 74 75 75 75 74 75 76 76 76 76 75 75 75 75 74 73 73 74 74 74 73 73 72 72 73 73 74 75 66 59 56 54 54
61 62 64 65 67 69 70 70 69 69 71 69 69 71 73 71 70 73 73 74 75 74 74 74 75 75 75 74 74 74 74 73 73 75 74 74 75 76 76 75 74 74 74 74 73 74 73 74 72 72 73 73 73 72 72 73 74 74 73 63 59 57 55
61 63 65 65 66 68 69 71 70 70 71 71 69 68 66 69 69 73 75 75 73 72 75 75 76 75 75 75 73 74 74 74 73 73 73 74 74 74 75 75 74 74 74 74 72 73 72 72 72 71 71 72 72 73 73 73 74 73 73 71 67 66 63
61 62 64 65 65 66 68 69 71 72 73 72 73 73 71 70 73 74 74 73 72 72 75 76 76 75 75 74 74 74 74 73 75 74 72 73 73 73 73 73 73 72 73 73 72 72 72 72 71 72 72 71 72 73 73 72 73 73 75 74 71 70 67
60 62 64 65 65 65 66 68 69 71 72 73 74 74 76 73 72 73 74 74 73 75 76 75 77 76 76 74 74 74 75 74 73 73 73 73 74 73 82 78 72 72 74 74 74 73 71 71 72 73 72 72 73 72 72 73 73 73 66 77 66 70 70
59 61 64 64 65 66 65 66 67 68 69 72 73 74 74 75 75 75 73 74 74 75 75 77 76 76 76 75 75 75 74 74 73 73 73 73 71 72 64 51 45 55 77 74 57 50 49 62 74 72 74 73 73 72 73 73 77 55 59 59 61 62 62
59 60 62 63 64 64 64 64 66 67 67 70 72 73 74 74 75 75 75 75 75 75 76 76 75 74 74 75 75 74 75 74 74 74 75 75 75 75 73 71 65 44 43 51 52 46 42 42 44 49 55 78 75 67 51 53 49 49 50 51 52 54 57
59 60 62 62 63 63 64 63 64 65 66 68 71 72 72 72 73 74 75 76 78 75 76 76 75 74 73 74 74 76 76 74 74 74 74 74 75 77 75 74 72 69 49 43 46 44 42 42 41 42 46 50 63 72 70 54 48 49 49 49 49 51 53